sat.trackr.live / text

‹ back to catalog

STARLINK-31758

NORAD 59621 · 2024-080W

PAYLOAD ACTIVE UNKNOWN

§ Identity

Operator
Country
US
Launch date
2024-04-28
Launch site
AFETR
Launch vehicle
Mass (kg)
RCS (m²)

Purposes: comms

External: N2YO · Heavens-Above · Gunter

§ Orbital elements

Epoch: 2026-09-21T07:18:12.906720Z

Period
94.27 min
Inclination
43.0029°
Eccentricity
0.0001319
Mean motion
15.27573947 rev/d
Perigee alt
482.2 km
Apogee alt
484.0 km
Semi-major
6,861.2 km
B*
4.1095e-5
RAAN
9.3476°
Arg perigee
259.9561°
Mean anomaly
100.1142°
Rev number
13,449

§ Raw data

STARLINK-317581 59621U 24080W   26264.30431605  .00000869  00000+0  41095-4 0  99942 59621  43.0029   9.3476 0001319 259.9561 100.1142 15.27573947134493

JSON: /api/v1/satellites/59621 · /tle

For live sub-satellite position, see the globe view (requires WebGL).

§ Visibility from observer

Set your observer location to see the next 7 days of passes ≥ 10°. The values pass through the URL so the page stays shareable.

No JS? Fill the form by hand. The geolocation button needs JavaScript.